• In Hungary
  • List of Countries
  • For 7 days
  • Water Temperature
  • Satellite Maps
  • Weather Map
  • News
  • Weather Widgets
  • user-avatar
    Login

    Hourly Weather Ilownica

    Today, 23 September, Sunday

    Time Temperature Precipitation Wind Pressure Humidity
    00:00 +12°C° 0.1 mm 3 mps 740 mmHg 67%
    01:00 +12°C° 0.1 mm 3 mps 740 mmHg 70%
    02:00 +12°C° 0.1 mm 3 mps 740 mmHg 71%
    03:00 +11°C° 0.1 mm 3 mps 740 mmHg 73%
    04:00 +11°C° 0.1 mm 3 mps 739 mmHg 75%
    05:00 +11°C° 0 mm 3 mps 739 mmHg 74%
    06:00 +11°C° 0 mm 3 mps 739 mmHg 73%
    07:00 +12°C° 0 mm 3 mps 739 mmHg 72%
    08:00 +13°C° 0 mm 4 mps 739 mmHg 67%
    09:00 +14°C° 0 mm 4 mps 739 mmHg 63%
    10:00 +15°C° 0 mm 5 mps 739 mmHg 58%
    11:00 +15°C° 0 mm 5 mps 739 mmHg 59%
    12:00 +15°C° 0 mm 5 mps 738 mmHg 60%
    13:00 +15°C° 0 mm 5 mps 738 mmHg 61%
    14:00 +15°C° 0.3 mm 5 mps 737 mmHg 68%
    15:00 +14°C° 0.3 mm 4 mps 736 mmHg 74%
    16:00 +13°C° 0.3 mm 4 mps 735 mmHg 80%
    17:00 +13°C° 0.2 mm 4 mps 734 mmHg 80%
    18:00 +13°C° 0.2 mm 5 mps 733 mmHg 79%
    19:00 +13°C° 0.2 mm 5 mps 732 mmHg 78%
    20:00 +14°C° 0.4 mm 6 mps 731 mmHg 79%
    21:00 +15°C° 0.4 mm 7 mps 730 mmHg 79%
    22:00 +15°C° 0.4 mm 8 mps 729 mmHg 79%
    23:00 +15°C° 3.2 mm 8 mps 729 mmHg 83%

    Tomorrow, 24 September, Monday

    Time Temperature Precipitation Wind Pressure Humidity
    00:00 +15°C° 3.2 mm 7 mps 729 mmHg 87%
    01:00 +15°C° 3.2 mm 7 mps 729 mmHg 90%
    02:00 +14°C° 1.8 mm 7 mps 731 mmHg 89%
    03:00 +11°C° 1.8 mm 8 mps 732 mmHg 88%
    04:00 +9°C° 1.8 mm 8 mps 734 mmHg 88%
    05:00 +9°C° 0.2 mm 7 mps 735 mmHg 87%
    06:00 +8°C° 0.2 mm 6 mps 736 mmHg 85%
    07:00 +8°C° 0.2 mm 6 mps 737 mmHg 84%
    08:00 +8°C° 0.2 mm 6 mps 738 mmHg 81%
    09:00 +9°C° 0.2 mm 7 mps 739 mmHg 78%
    10:00 +9°C° 0.2 mm 7 mps 740 mmHg 74%
    11:00 +9°C° 0.2 mm 7 mps 740 mmHg 69%
    12:00 +10°C° 0.2 mm 8 mps 741 mmHg 63%
    13:00 +11°C° 0.2 mm 8 mps 741 mmHg 58%
    14:00 +10°C° 0.3 mm 8 mps 742 mmHg 58%
    15:00 +10°C° 0.3 mm 7 mps 742 mmHg 59%
    16:00 +9°C° 0.3 mm 7 mps 742 mmHg 60%
    17:00 +8°C° 0.1 mm 6 mps 742 mmHg 63%
    18:00 +7°C° 0.1 mm 5 mps 743 mmHg 66%
    19:00 +6°C° 0.1 mm 4 mps 743 mmHg 69%
    20:00 +6°C° 0 mm 5 mps 743 mmHg 69%
    21:00 +6°C° 0 mm 5 mps 744 mmHg 69%
    22:00 +5°C° 0 mm 5 mps 744 mmHg 69%
    23:00 +5°C° 0.1 mm 5 mps 745 mmHg 71%

    Day after tomorrow, 25 September, Tuesday

    Time Temperature Precipitation Wind Pressure Humidity
    00:00 +5°C° 0.1 mm 5 mps 745 mmHg 73%
    01:00 +5°C° 0.1 mm 4 mps 746 mmHg 75%
    02:00 +5°C° 0.1 mm 4 mps 746 mmHg 77%
    03:00 +5°C° 0.1 mm 4 mps 747 mmHg 79%
    04:00 +4°C° 0.1 mm 3 mps 747 mmHg 81%
    05:00 +5°C° 0.1 mm 3 mps 748 mmHg 82%
    06:00 +5°C° 0.1 mm 3 mps 748 mmHg 82%
    07:00 +5°C° 0.1 mm 4 mps 749 mmHg 83%
    08:00 +6°C° 0.1 mm 4 mps 749 mmHg 78%
    09:00 +7°C° 0.1 mm 4 mps 750 mmHg 73%
    10:00 +8°C° 0.1 mm 4 mps 750 mmHg 68%
    11:00 +8°C° 0.2 mm 4 mps 750 mmHg 65%
    12:00 +9°C° 0.2 mm 5 mps 750 mmHg 62%
    13:00 +10°C° 0.2 mm 5 mps 751 mmHg 59%
    14:00 +11°C° 0.2 mm 4 mps 751 mmHg 59%
    15:00 +11°C° 0.2 mm 4 mps 751 mmHg 59%
    16:00 +10°C° 0.2 mm 4 mps 751 mmHg 59%
    17:00 +9°C° 0 mm 3 mps 751 mmHg 64%
    18:00 +8°C° 0 mm 2 mps 752 mmHg 68%
    19:00 +6°C° 0 mm 2 mps 752 mmHg 73%
    20:00 +7°C° 0 mm 1 mps 752 mmHg 74%
    21:00 +7°C° 0 mm 1 mps 753 mmHg 76%
    22:00 +6°C° 0 mm 1 mps 753 mmHg 78%
    23:00 +6°C° 0 mm 1 mps 753 mmHg 79%

    26 September, Wednesday

    Time Temperature Precipitation Wind Pressure Humidity
    00:00 +5°C° 0 mm 1 mps 753 mmHg 80%
    01:00 +5°C° 0 mm 1 mps 754 mmHg 81%
    02:00 +5°C° 0 mm 1 mps 753 mmHg 82%
    03:00 +5°C° 0 mm 1 mps 753 mmHg 82%
    04:00 +4°C° 0 mm 1 mps 753 mmHg 83%
    05:00 +5°C° 0 mm 1 mps 753 mmHg 80%
    06:00 +6°C° 0 mm 1 mps 753 mmHg 77%
    07:00 +6°C° 0 mm 1 mps 753 mmHg 74%
    08:00 +7°C° 0 mm 2 mps 753 mmHg 64%
    09:00 +9°C° 0 mm 2 mps 753 mmHg 54%
    10:00 +12°C° 0 mm 2 mps 753 mmHg 44%
    11:00 +12°C° 0 mm 3 mps 752 mmHg 42%
    12:00 +13°C° 0 mm 3 mps 752 mmHg 41%
    13:00 +14°C° 0 mm 4 mps 751 mmHg 39%
    14:00 +14°C° 0 mm 3 mps 751 mmHg 42%
    15:00 +14°C° 0 mm 3 mps 750 mmHg 46%
    16:00 +13°C° 0 mm 3 mps 750 mmHg 49%
    17:00 +12°C° 0 mm 3 mps 750 mmHg 53%
    18:00 +11°C° 0 mm 3 mps 750 mmHg 56%
    19:00 +10°C° 0 mm 3 mps 749 mmHg 60%
    20:00 +10°C° 0 mm 3 mps 749 mmHg 59%
    21:00 +10°C° 0 mm 3 mps 749 mmHg 58%
    22:00 +10°C° 0 mm 3 mps 749 mmHg 57%
    23:00 +10°C° 0 mm 3 mps 749 mmHg 56%

    27 September, Thursday

    Time Temperature Precipitation Wind Pressure Humidity
    00:00 +9°C° 0 mm 3 mps 749 mmHg 55%
    01:00 +9°C° 0 mm 3 mps 748 mmHg 54%
    02:00 +9°C° 0 mm 3 mps 748 mmHg 55%
    03:00 +9°C° 0 mm 3 mps 748 mmHg 56%
    04:00 +8°C° 0 mm 3 mps 747 mmHg 57%
    05:00 +9°C° 0 mm 3 mps 747 mmHg 57%
    06:00 +9°C° 0 mm 3 mps 747 mmHg 57%
    07:00 +9°C° 0 mm 3 mps 747 mmHg 56%
    08:00 +11°C° 0 mm 3 mps 747 mmHg 52%
    09:00 +14°C° 0 mm 3 mps 747 mmHg 47%
    10:00 +17°C° 0 mm 3 mps 747 mmHg 43%
    11:00 +18°C° 0 mm 3 mps 747 mmHg 41%
    12:00 +19°C° 0 mm 3 mps 747 mmHg 38%
    13:00 +20°C° 0 mm 3 mps 746 mmHg 36%
    14:00 +20°C° 0 mm 3 mps 746 mmHg 40%
    15:00 +20°C° 0 mm 2 mps 746 mmHg 43%
    16:00 +19°C° 0 mm 2 mps 745 mmHg 47%
    17:00 +17°C° 0 mm 2 mps 745 mmHg 51%
    18:00 +16°C° 0 mm 2 mps 745 mmHg 56%
    19:00 +14°C° 0 mm 2 mps 745 mmHg 61%
    20:00 +13°C° 0 mm 2 mps 745 mmHg 61%
    21:00 +13°C° 0 mm 2 mps 745 mmHg 62%
    22:00 +13°C° 0 mm 2 mps 745 mmHg 63%
    23:00 +12°C° 0 mm 2 mps 745 mmHg 63%

    28 September, Friday

    Time Temperature Precipitation Wind Pressure Humidity
    00:00 +12°C° 0 mm 2 mps 744 mmHg 63%
    01:00 +12°C° 0 mm 2 mps 744 mmHg 63%
    02:00 +12°C° 0 mm 2 mps 744 mmHg 64%
    03:00 +10°C° 0 mm 2 mps 743 mmHg 64%
    04:00 +10°C° 0 mm 2 mps 743 mmHg 65%
    05:00 +12°C° 0 mm 2 mps 743 mmHg 64%
    06:00 +12°C° 0 mm 2 mps 743 mmHg 64%
    07:00 +12°C° 0 mm 2 mps 743 mmHg 63%
    08:00 +15°C° 0 mm 2 mps 742 mmHg 57%
    09:00 +17°C° 0 mm 3 mps 742 mmHg 51%
    10:00 +19°C° 0 mm 3 mps 742 mmHg 45%
    11:00 +20°C° 0 mm 3 mps 742 mmHg 43%
    12:00 +21°C° 0 mm 3 mps 741 mmHg 41%
    13:00 +22°C° 0 mm 4 mps 741 mmHg 39%
    14:00 +21°C° 0 mm 3 mps 740 mmHg 43%
    15:00 +21°C° 0 mm 3 mps 740 mmHg 46%
    16:00 +20°C° 0 mm 3 mps 739 mmHg 49%
    17:00 +18°C° 0 mm 3 mps 739 mmHg 55%
    18:00 +16°C° 0 mm 2 mps 739 mmHg 60%
    19:00 +15°C° 0 mm 2 mps 739 mmHg 66%
    20:00 +14°C° 0 mm 2 mps 739 mmHg 67%
    21:00 +13°C° 0 mm 2 mps 739 mmHg 68%
    22:00 +13°C° 0 mm 2 mps 738 mmHg 68%
    23:00 +13°C° 0 mm 2 mps 738 mmHg 68%
    Show more